Location: Karlsruhe
(49.0131°N, 8.3874°E)
Time: 10:39:20
(UTC+01:00)

ISS - Pass Details

Date: 10 January 2018
Orbit: 402 x 406 km, 51.6° (Epoch: 16 January)

Event Time Altitude Azimuth Distance (km) Brightness Sun altitude
Exits shadow 06:32:38 47° 289° (WNW) 551 -3.6 -16.6°
Maximum altitude 06:33:29 89° 219° (SW) 411 -3.9 -16.5°
Drops below altitude 10° 06:36:46 10° 111° (ESE) 1,464 0.3 -15.9°
Sets 06:38:51 0° 112° (ESE) 2,322 1.9 -15.6°
